Rochester, NY

1:07 PM EST on December 06, 2019 (GMT -0500)
Greater Rochester International

Weather History for KROC - November, 2019

Change the Weather History Date:

Tuesday, November 19, 2019

  Actual Average Record
Temperature  
Mean Temperature 37 °F 39 °F  
Max Temperature 39 °F 47 °F 73 °F (1941)
Min Temperature 35 °F 32 °F 11 °F (1894)
Degree Days  
Heating Degree Days 28 26  
Month to date heating degree days 599 428  
Since 1 July heating degree days 1022 1061  
Cooling Degree Days 0 0  
Month to date cooling degree days 0 0  
Year to date cooling degree days 621 539  
Moisture  
Dew Point 31 °F    
Average Humidity 81    
Maximum Humidity 92    
Minimum Humidity 70    
Precipitation  
Precipitation 0.00 in 0.10 in 1.37 in (1889)
Month to date precipitation 1.51 1.84  
Year to date precipitation 30.21 30.54  
Snow  
Snow 0.00 in 0.20 in 5.00 in (1955)
Month to date snowfall 17.8 3.2  
Since 1 July snowfall 17.8 3.3  
Since 1 September snowfall 17.8 3.3  
Snow Depth 3.0 in    
Sea Level Pressure  
Sea Level Pressure 29.85 in    
Wind  
Wind Speed 3 mph ()    
Max Wind Speed 9 mph    
Max Gust Speed 11 mph    
Visibility 10.0 miles    
Events      
T = Trace of Precipitation, MM = Missing Value Source: Averaged Metar Reports

Daily Weather History Graph

Daily Weather History Graph

Search for Another Location

Airport or City:

Astronomy

Nov. 19, 2019 Rise Set
Actual Time 7:08 AM EST 4:43 PM EST
Civil Twilight 6:37 AM EST 5:14 PM EST
Nautical Twilight 6:02 AM EST 5:49 PM EST
Astronomical Twilight 5:28 AM EST 6:22 PM EST
Moon 11:38 PM EST (11/19) 1:16 PM EST (11/19)
Length of Visible Light 10h 37m
Length of Day
9h 35m
Waning Gibbous, 52% of the Moon is Illuminated
Nov 19
Waning Gibbous
Nov 19
Last Quarter
Nov 26
New
Dec 4
First Quarter
Dec 12
Full

Hourly Weather History & Observations

Time (EST) Temp. Windchill Dew Point Humidity Pressure Visibility Wind Dir Wind Speed Gust Speed Precip Events Conditions
12:54 AM 37.0 °F 33.3 °F 33.1 °F 86% 29.77 in 10.0 mi NNE 4.6 mph - N/A   Overcast
1:54 AM 36.0 °F 31.1 °F 33.1 °F 89% 29.77 in 10.0 mi NNE 5.8 mph - N/A   Overcast
2:54 AM 36.0 °F 31.1 °F 32.0 °F 86% 29.76 in 10.0 mi NE 5.8 mph - N/A   Overcast
3:54 AM 36.0 °F 29.6 °F 32.0 °F 86% 29.76 in 10.0 mi ENE 8.1 mph - N/A   Overcast
4:54 AM 36.0 °F 33.3 °F 32.0 °F 86% 29.77 in 10.0 mi NE 3.5 mph - N/A   Overcast
5:19 AM 36.0 °F 33.3 °F 32.0 °F 86% 29.75 in 10.0 mi NE 3.5 mph - N/A   Overcast
5:54 AM 36.0 °F 32.1 °F 32.0 °F 86% 29.79 in 10.0 mi East 4.6 mph - N/A   Overcast
6:54 AM 36.0 °F - 30.9 °F 82% 29.81 in 10.0 mi Calm Calm - N/A   Overcast
7:54 AM 35.1 °F - 32.0 °F 89% 29.82 in 10.0 mi Calm Calm - N/A   Overcast
8:37 AM 35.1 °F - 32.0 °F 89% 29.80 in 10.0 mi Calm Calm - N/A   Overcast
8:54 AM 37.0 °F 34.5 °F 32.0 °F 82% 29.83 in 10.0 mi WNW 3.5 mph - N/A   Overcast
9:54 AM 37.0 °F - 30.9 °F 79% 29.84 in 10.0 mi Calm Calm - N/A   Overcast
10:54 AM 37.9 °F 34.4 °F 30.9 °F 76% 29.85 in 10.0 mi NNE 4.6 mph - N/A   Overcast
11:54 AM 37.9 °F 33.5 °F 30.9 °F 76% 29.84 in 10.0 mi ENE 5.8 mph - N/A   Overcast
12:54 PM 37.9 °F 35.5 °F 30.9 °F 76% 29.84 in 10.0 mi ENE 3.5 mph - N/A   Overcast
1:44 PM 39.0 °F 36.8 °F 30.9 °F 73% 29.83 in 10.0 mi ENE 3.5 mph - N/A   Overcast
1:54 PM 39.0 °F - 30.9 °F 73% 29.85 in 10.0 mi Calm Calm - N/A   Overcast
2:54 PM 37.9 °F 33.5 °F 30.9 °F 76% 29.86 in 10.0 mi NNE 5.8 mph - N/A   Overcast
3:54 PM 37.9 °F 34.4 °F 30.9 °F 76% 29.88 in 10.0 mi NNE 4.6 mph - N/A   Overcast
4:54 PM 37.9 °F 35.5 °F 30.9 °F 76% 29.90 in 10.0 mi NNE 3.5 mph - N/A   Overcast
5:17 PM 37.9 °F 35.5 °F 30.9 °F 76% 29.88 in 10.0 mi NE 3.5 mph - N/A   Overcast
5:54 PM 37.9 °F 35.5 °F 30.0 °F 73% 29.92 in 10.0 mi NE 3.5 mph - N/A   Overcast
6:54 PM 37.0 °F - 30.9 °F 79% 29.94 in 10.0 mi Calm Calm - N/A   Overcast
7:50 PM 37.4 °F - 30.2 °F 75% 29.92 in 10.0 mi Calm Calm - N/A   Overcast
7:54 PM 37.0 °F - 30.9 °F 79% 29.94 in 10.0 mi Calm Calm - N/A   Overcast
8:54 PM 37.0 °F - 30.9 °F 79% 29.95 in 10.0 mi Calm Calm - N/A   Overcast
9:54 PM 37.0 °F - 30.9 °F 79% 29.95 in 10.0 mi Calm Calm - N/A   Overcast
10:54 PM 35.1 °F 32.2 °F 30.9 °F 85% 29.95 in 10.0 mi SSW 3.5 mph - N/A   Overcast
11:54 PM 35.1 °F - 32.0 °F 89% 29.96 in 10.0 mi Calm Calm - N/A   Overcast